Tyler, TX

2:35 PM CDT on May 26, 2017 (GMT -0500)
Tyler Pounds

Weather History for KTYR - August, 2014

Change the Weather History Date:

Tuesday, August 12, 2014

  Actual Average Record
Temperature  
Mean Temperature 83 °F 84 °F  
Max Temperature 93 °F 94 °F 105 °F (1964)
Min Temperature 72 °F 74 °F 52 °F (1967)
Degree Days  
Heating Degree Days 0 0  
Month to date heating degree days 0 0  
Since 1 June heating degree days 0 0  
Since 1 July heating degree days 0 0  
Cooling Degree Days 18 19  
Month to date cooling degree days 215 228  
Year to date cooling degree days 1595 1586  
Since 1 June cooling degree days 1202 1217  
Growing Degree Days 33 (Base 50)    
Moisture  
Dew Point 63 °F    
Average Humidity 62    
Maximum Humidity 94    
Minimum Humidity 30    
Precipitation  
Precipitation 0.00 in 0.09 in 5.18 in (2008)
Month to date precipitation 0.03 0.94  
Year to date precipitation 21.32 27.34  
Snow  
Snow 0.00 in - - ()
Month to date snowfall 0.0  
Since 1 June snowfall 0.0  
Since 1 July snowfall 0.0  
Snow Depth 0.00 in    
Sea Level Pressure  
Sea Level Pressure 30.00 in    
Wind  
Wind Speed 5 mph (North)    
Max Wind Speed 15 mph    
Max Gust Speed 21 mph    
Visibility 10 miles    
Events      
T = Trace of Precipitation, MM = Missing Value Source: NWS Daily Summary

Daily Weather History Graph

Daily Weather History Graph

Search for Another Location

Airport or City:

Trip Planner

Search our weather history database for the weather conditions in past years. The results will help you decide how hot, cold, wet, or windy it might be!

Date:

Astronomy

Aug. 12, 2014 Rise Set
Actual Time 6:43 AM CDT 8:09 PM CDT
Civil Twilight 6:17 AM CDT 8:35 PM CDT
Nautical Twilight 5:46 AM CDT 9:06 PM CDT
Astronomical Twilight 5:13 AM CDT 9:38 PM CDT
Moon 9:29 PM CDT (8/12) 8:51 AM CDT (8/12)
Length of Visible Light 14h 17m
Length of Day
13h 25m
Waning Gibbous, 94% of the Moon is Illuminated
Aug 12
Waning Gibbous
Aug 17
Last Quarter
Aug 25
New
Sep 2
First Quarter
Sep 8
Full

Hourly Weather History & Observations

Time (CDT) Temp. Heat Index Dew Point Humidity Pressure Visibility Wind Dir Wind Speed Gust Speed Precip Events Conditions
12:53 AM 75.9 °F - 73.0 °F 91% 30.01 in 10.0 mi Calm Calm - N/A   Clear
1:53 AM 77.0 °F - 73.0 °F 88% 30.00 in 10.0 mi Calm Calm - N/A   Clear
2:53 AM 75.9 °F - 72.0 °F 87% 29.99 in 10.0 mi Calm Calm - N/A   Clear
5:53 AM 73.9 °F - 69.1 °F 85% 30.00 in 10.0 mi Calm Calm - N/A   Clear
6:53 AM 73.0 °F - 69.1 °F 87% 30.01 in 10.0 mi Calm Calm - N/A   Clear
7:53 AM 77.0 °F - 70.0 °F 79% 30.02 in 10.0 mi NNE 3.5 mph - N/A   Clear
8:53 AM 82.0 °F 86.3 °F 71.1 °F 69% 30.04 in 10.0 mi NNW 4.6 mph - N/A   Clear
9:53 AM 84.9 °F 88.8 °F 69.1 °F 59% 30.04 in 10.0 mi North 5.8 mph - N/A   Scattered Clouds
10:53 AM 88.0 °F 92.1 °F 69.1 °F 53% 30.04 in 10.0 mi North 10.4 mph - N/A   Clear
12:53 PM 91.0 °F 92.6 °F 64.0 °F 41% 30.03 in 10.0 mi NNW 9.2 mph 17.3 mph N/A   Partly Cloudy
1:53 PM 93.0 °F 93.8 °F 62.1 °F 36% 30.01 in 10.0 mi North 10.4 mph - N/A   Partly Cloudy
2:53 PM 93.0 °F 92.0 °F 57.9 °F 31% 30.00 in 10.0 mi North 10.4 mph 19.6 mph N/A   Clear
3:53 PM 91.9 °F 90.3 °F 55.9 °F 30% 29.98 in 10.0 mi NNW 12.7 mph 20.7 mph N/A   Clear
4:53 PM 91.0 °F 88.9 °F 55.0 °F 29% 29.97 in 10.0 mi NNW 10.4 mph - N/A   Clear
5:53 PM 91.0 °F 88.9 °F 55.0 °F 29% 29.96 in 10.0 mi NNE 9.2 mph - N/A   Clear
6:53 PM 88.0 °F 86.7 °F 57.0 °F 35% 29.96 in 10.0 mi NNE 8.1 mph - N/A   Clear
7:53 PM 84.0 °F 83.0 °F 55.9 °F 38% 29.98 in 10.0 mi North 5.8 mph - N/A   Clear
8:53 PM 79.0 °F - 57.0 °F 47% 29.98 in 10.0 mi NNE 4.6 mph - N/A   Clear
9:53 PM 75.9 °F - 57.9 °F 54% 30.00 in 10.0 mi North 3.5 mph - N/A   Clear
10:53 PM 75.0 °F - 59.0 °F 57% 30.01 in 10.0 mi NNE 3.5 mph - N/A   Clear
11:53 PM 73.9 °F - 59.0 °F 59% 30.02 in 10.0 mi Calm Calm - N/A   Clear